Location: Highridge
(54.0333°N, 114.1333°W)
Time: 05:06:32
(UTC+00:00)

SO-50 - Pass Details

Date: 13 December 2023
Orbit: 608 x 660 km, 64.6° (Epoch: 02 March)

Event Time Altitude Azimuth Distance (km) Brightness Sun altitude
Exits shadow 12:44:47 22° 7° (N) 1,408 ? -25.2°
Drops below altitude 10° 12:47:46 10° 47° (NE) 2,024 ? -24.7°
Sets 12:50:28 0° 62° (ENE) 2,921 ? -24.4°
